Flag for U.S.A. Weather past 2 weeks in Springfield, Illinois, U.S.A.

Now
34 °F

Light snow. Fog.


Feels Like: 34 °F
Forecast: 23 / 37 °F
Wind: No wind

Location: Capital Airport

Current Time: Feb 1, 2015 at 11:33:15 AM

Latest Report: Feb 1, 2015 at 11:02 AM


Visibility: 1 mi

Pressure: 29.71 "Hg

Humidity: 92%

Dew point: 32 °F

Location of SpringfieldLocation

Historic Weather in Springfield — Graph

°F

Springfield temperature yesterday

Maximum temperature yesterday: 39 °F (at 12:52 PM)
Minimum temperature yesterday: 25 °F (at 12:52 AM)
Average temperature yesterday: 33 °F

Past Weeks' High & Low Weather Summary

 TemperatureHumidityPressure
High51 °F (Jan 17, 12:52 PM)100% (Jan 25, 7:52 AM)30.58 "Hg (Jan 25, 7:52 AM)
Low21 °F (Jan 26, 4:52 AM)48% (Jan 19, 1:52 PM)29.60 "Hg (Jan 25, 4:52 AM)
Average35 °F76%30.07 "Hg
* Reported Jan 17 9:52 AM — Feb 1 9:57 AM, Springfield, Weather by CustomWeather, © 2014

Note: Actual official high and low records may vary slightly from our data, if they occured in-between our weather recording intervals... More about our weather records

Advertising

Springfield weather history for previous 24 hours

 ConditionsComfort  
Time TempWeatherWind HumidityBarometerVisibility
9:57 AM
Feb 1
34 °FFog.8 mph92%29.73 "Hg4 mi
8:52 AM34 °FLight snow. Fog.7 mph92%29.77 "Hg2 mi
7:52 AM34 °FLight snow. Fog.7 mph92%29.81 "Hg1 mi
6:52 AM33 °FLight snow. Fog.12 mph96%29.83 "Hg1 mi
5:52 AM34 °FLight snow. Fog.15 mph88%29.85 "Hg2 mi
4:52 AM33 °FLight snow. Fog.15 mph96%29.88 "Hg1 mi
4:04 AM33 °FLight snow. Fog.12 mph92%29.91 "Hg1 mi
2:52 AM34 °FLight snow. Fog.9 mph92%29.99 "Hg4 mi
2:02 AM35 °FLight snow. Overcast.15 mph82%30.01 "Hg2 mi
1:52 AM36 °FMostly cloudy.13 mph82%30.02 "Hg10 mi
12:52 AM35 °FOvercast.12 mph88%30.04 "Hg10 mi
11:52 PM
Jan 31
34 °FLight rain. Fog.10 mph92%30.08 "Hg4 mi
10:52 PM35 °FLight rain. Fog.8 mph92%30.12 "Hg5 mi
9:52 PM35 °FLight rain. Fog.7 mph92%30.15 "Hg6 mi
8:52 PM35 °FLight rain. Overcast.9 mph85%30.16 "Hg7 mi
7:52 PM35 °FOvercast.6 mph88%30.19 "Hg10 mi
6:52 PM36 °FOvercast.7 mph85%30.20 "Hg9 mi
5:52 PM35 °FFog.8 mph92%30.22 "Hg6 mi
4:52 PM36 °FLight rain. Fog.3 mph89%30.22 "Hg5 mi
3:52 PM37 °FLight rain. Mostly cloudy.6 mph82%30.24 "Hg5 mi
2:52 PM38 °FOvercast.7 mph73%30.25 "Hg10 mi
1:52 PM39 °FMostly cloudy.7 mph65%30.26 "Hg10 mi
12:52 PM39 °FBroken clouds.9 mph60%30.28 "Hg10 mi
11:52 AM38 °FPartly sunny.7 mph63%30.30 "Hg10 mi
Weather by CustomWeather, © 2014

See weather overviewHow to use our weather pages